Temperature
18 18 18 18 18 18 18 18 18 18 18 18 18 18 18 18 18 18 18 18 18 18 17 17 17 17 17 17 17 17 17 17 17 17 17 16 16 16 16 16 16 16 16
18 18 18 18 18 18 18 18 18 18 18 18 18 18 18 18 18 18 18 18 18 18 18 17 17 17 17 17 17 17 17 17 17 17 16 16 16 16 16 16 16 16 16
18 18 18 18 18 18 18 18 18 18 18 18 18 18 18 18 17 17 17 17 17 18 17 17 17 17 17 17 17 17 17 17 17 17 16 16 16 16 16 16 16 16 16
18 18 18 18 18 18 18 18 18 18 18 18 18 17 18 17 17 17 17 17 17 17 17 17 17 17 17 17 17 17 17 17 17 16 16 16 16 16 16 16 16 16 16
18 18 18 18 18 18 18 18 18 18 18 18 18 17 18 18 18 18 17 17 17 17 17 17 17 17 17 17 17 17 17 17 16 16 16 16 16 16 16 16 16 16 16
18 18 18 18 18 18 18 18 18 18 18 18 18 18 18 18 17 17 17 17 17 17 17 17 17 17 17 17 17 17 17 17 16 16 16 16 16 16 16 16 16 15 15
18 18 18 18 18 18 18 18 18 18 18 18 18 18 17 18 18 18 17 17 17 17 17 17 17 17 17 17 17 17 17 16 16 16 16 16 16 16 16 16 15 15 15
18 18 18 18 18 18 18 18 18 18 18 18 18 18 17 18 18 18 17 17 17 17 17 17 17 17 17 17 17 17 17 17 16 16 16 16 16 16 16 16 15 15 15
18 18 18 18 18 18 18 18 18 18 18 18 18 18 18 18 18 18 18 17 17 17 17 17 17 17 17 17 17 17 16 16 16 16 16 16 16 16 16 16 16 15 15
18 18 18 18 18 18 18 18 18 18 18 18 18 18 18 18 18 17 18 17 17 17 17 17 17 17 17 17 17 17 16 16 16 16 16 16 16 16 16 16 16 15 15
18 18 18 18 18 18 18 18 18 18 18 18 18 18 18 18 18 18 18 18 18 18 17 17 17 17 17 17 17 17 16 16 16 16 16 16 16 16 16 16 15 15 15
18 18 18 18 18 18 18 18 18 18 18 18 18 18 18 18 18 18 18 18 18 17 17 17 17 17 17 17 17 17 16 16 16 16 16 16 16 16 16 16 15 15 15
18 18 18 18 18 18 18 18 18 18 18 18 18 18 18 18 18 18 18 18 18 18 17 17 17 17 17 17 17 17 17 16 16 16 16 16 16 16 16 16 15 15 15
19 19 18 18 18 18 18 18 18 18 18 18 18 18 18 18 18 18 18 18 17 17 17 17 17 17 17 17 17 17 17 16 16 16 16 16 16 16 15 15 15 15 15
18 18 18 18 18 18 18 18 18 18 18 18 18 18 18 18 18 18 18 18 17 17 17 17 17 17 17 17 17 17 16 16 16 16 16 16 16 15 15 15 15 15 15
18 18 18 18 18 18 18 18 18 18 18 18 18 17 17 17 17 17 17 17 17 17 17 17 17 17 17 17 16 16 16 16 16 16 16 16 16 15 15 15 15 15 14
18 18 18 18 18 18 18 18 18 18 17 17 17 17 17 17 17 17 17 17 17 17 17 17 17 17 17 16 16 16 16 16 16 16 16 16 15 15 15 15 15 15 14
18 18 18 18 18 18 18 18 17 17 17 17 17 17 17 17 17 17 17 17 17 17 17 17 16 16 16 16 16 16 16 16 16 16 16 15 15 15 15 15 15 14 14
18 18 18 18 18 18 18 18 17 17 17 17 17 17 17 17 17 17 17 17 17 17 17 16 16 16 16 16 16 16 16 15 15 15 15 15 15 15 15 15 15 14 14
18 18 18 18 18 18 17 17 17 17 17 17 17 17 17 17 17 17 17 17 17 16 16 16 16 16 16 16 16 15 15 15 15 15 15 15 15 15 15 15 14 14 14
17 18 18 17 17 17 17 17 17 17 17 17 17 17 17 16 17 17 16 16 16 16 16 16 16 16 15 15 15 15 15 15 15 15 15 15 15 15 14 14 14 14 14
17 17 17 17 17 17 17 17 17 17 17 17 16 16 16 16 16 16 16 16 16 16 16 16 15 15 15 15 15 15 15 14 14 14 14 14 14 14 15 14 14 14 14
17 17 18 17 17 17 17 17 17 17 17 16 16 16 16 16 16 16 16 16 16 16 16 15 15 15 15 15 15 15 15 14 14 14 14 14 14 14 14 14 14 14 14
17 17 17 17 17 17 17 17 17 16 16 16 16 16 16 16 16 16 16 16 16 16 16 15 15 16 15 15 15 15 15 14 14 14 14 14 14 14 14 14 14 14 14
17 17 17 17 17 17 16 16 16 16 16 16 16 16 16 16 16 16 15 15 15 15 15 15 15 15 15 15 15 15 14 14 14 14 14 13 14 14 14 14 14 14 14
17 17 16 16 16 16 16 16 16 16 16 16 16 15 15 15 15 15 15 15 15 15 15 15 15 15 15 15 15 14 14 14 14 13 14 13 13 13 13 14 14 14 13
Wind_Speed
5 6 5 5 5 5 4 3 3 3 3 3 3 4 4 5 8 10 12 16 15 14 13 11 11 10 9 9 9 8 8 8 8 8 8 8 8 7 7 7 7 7 6
5 5 5 4 4 5 5 3 3 3 2 3 3 4 4 4 7 9 11 13 14 13 12 11 10 10 9 9 9 8 8 8 7 8 8 8 8 8 8 8 8 8 7
6 5 4 4 4 4 5 4 3 3 3 3 3 3 3 3 4 7 9 11 11 12 12 11 11 10 10 10 9 9 9 8 8 8 8 8 9 9 8 8 7 7 7
6 4 3 4 5 4 4 3 3 2 3 3 3 2 2 3 4 5 7 10 10 11 12 12 11 11 11 10 9 9 9 9 9 9 9 9 9 9 9 8 8 7 7
6 3 3 4 4 3 3 3 4 2 2 2 2 3 3 3 3 5 6 8 9 10 11 12 13 12 11 11 10 9 9 9 8 9 9 9 9 9 9 9 8 8 7
5 3 4 5 4 3 3 3 4 2 2 2 2 2 2 2 2 3 4 5 7 9 10 11 11 11 12 11 10 10 9 9 9 9 9 9 9 8 8 8 8 8 8
5 3 2 4 3 3 3 4 3 3 2 2 2 2 1 2 3 2 2 3 4 6 8 9 11 10 11 13 12 11 10 10 9 9 9 8 8 8 8 8 8 8 8
5 5 3 3 4 3 3 3 3 2 2 2 2 2 1 1 1 3 3 4 4 5 5 7 7 8 9 10 11 13 12 10 10 9 8 8 8 7 7 8 8 8 8
5 3 4 2 2 3 4 4 3 4 3 2 2 1 1 1 1 1 3 3 3 3 4 6 7 8 9 9 10 12 13 12 11 10 9 8 8 7 7 7 8 8 8
4 4 4 3 2 2 3 4 4 2 2 2 1 1 1 1 1 1 1 2 3 4 4 4 5 6 8 9 10 11 14 13 12 11 9 9 8 7 7 7 7 7 8
4 4 4 3 3 2 2 2 2 2 2 2 2 1 1 1 2 2 2 2 2 3 3 3 3 4 7 9 10 11 14 14 12 11 10 9 8 8 7 7 7 7 7
3 4 4 3 3 3 2 2 2 3 2 2 2 1 1 2 2 2 2 3 3 3 3 3 3 4 6 8 9 12 14 14 13 11 10 9 9 8 8 8 7 7 7
4 4 4 3 3 3 3 3 3 3 3 2 3 2 2 2 1 1 1 2 2 2 2 3 4 6 8 8 9 12 14 15 14 13 11 10 9 9 9 8 7 7 7
3 5 4 4 3 3 3 2 2 3 2 3 4 3 2 2 2 2 2 1 2 2 3 4 3 5 6 8 9 12 12 15 14 13 12 11 10 10 9 9 8 7 6
3 5 5 4 4 3 2 2 2 2 2 3 3 3 3 3 3 2 2 2 2 3 3 3 2 3 5 7 9 10 10 14 15 14 13 13 12 11 11 10 9 9 8
2 3 4 4 3 3 3 3 3 3 3 3 3 4 4 3 3 3 3 3 3 3 3 2 2 2 3 4 9 9 10 12 14 15 15 14 14 13 13 12 11 10 9
2 2 3 4 4 3 3 3 4 4 4 4 4 4 5 4 3 3 3 3 3 2 4 3 2 2 3 3 4 6 8 9 10 15 16 16 15 15 14 13 13 12 11
2 2 2 3 3 3 3 4 4 4 4 4 4 4 4 4 4 3 3 3 3 3 3 4 3 2 3 4 4 4 5 7 8 12 16 16 16 16 16 15 15 14 13
3 3 2 2 2 2 3 3 3 4 4 4 4 4 4 4 4 4 4 4 3 4 3 4 4 2 2 3 4 4 4 4 7 9 14 15 17 17 17 17 16 16 15
4 3 3 3 3 2 2 3 3 4 4 4 4 5 5 5 5 5 5 4 4 3 3 3 3 3 3 3 3 4 4 4 5 6 8 10 14 17 18 18 18 17 17
5 4 3 3 3 3 3 2 3 4 4 4 4 4 4 4 5 4 4 3 4 3 3 3 4 3 3 3 3 4 4 4 4 4 4 5 7 9 12 16 18 19 19
4 4 4 3 3 4 3 2 2 2 2 3 3 3 3 3 4 4 4 4 5 5 4 4 4 4 4 3 4 4 4 4 4 3 4 5 6 6 8 11 17 21 22
4 4 4 4 3 3 1 1 2 2 3 3 3 3 5 4 2 3 4 5 6 6 7 5 6 6 5 5 5 6 5 5 6 4 4 5 5 6 7 11 17 20 22
5 5 4 4 4 3 3 2 3 3 3 4 4 4 4 3 3 3 3 3 4 5 7 7 7 7 6 4 6 6 6 5 5 4 4 5 5 6 6 7 15 19 21
4 4 4 4 3 3 3 3 2 3 3 4 4 4 4 3 3 3 3 4 4 5 6 6 7 7 8 9 6 4 5 5 5 5 4 5 5 5 5 5 10 16 18
3 4 4 4 4 3 4 4 4 3 3 4 3 3 4 3 3 2 3 4 5 5 5 5 5 7 8 9 10 8 7 6 5 4 4 5 5 4 4 4 4 8 12
Wind_Direction
120 121 124 138 141 139 135 134 130 121 113 114 120 122 102 114 119 125 142 152 154 158 162 167 174 178 180 182 183 185 187 190 193 192 195 198 200 203 207 212 211 209 208
122 122 128 131 130 135 141 135 128 117 111 95 88 93 94 92 111 127 142 154 160 164 168 175 180 185 187 186 188 189 192 193 190 191 196 200 204 208 211 216 215 214 215
127 130 130 133 133 135 131 131 124 121 127 125 122 117 109 114 125 132 148 158 165 172 179 184 185 187 189 189 190 194 198 196 196 199 202 205 209 211 214 216 214 213 214
136 137 133 136 131 138 135 137 149 141 123 125 133 149 140 150 151 156 162 164 169 173 182 189 188 189 190 191 192 195 198 201 204 206 209 211 213 216 216 215 214 212 211
147 155 124 118 143 149 148 156 133 130 119 131 156 169 173 168 161 176 165 169 169 165 171 182 187 189 191 193 197 199 201 205 208 209 211 214 217 218 215 214 214 214 214
151 156 137 145 166 144 136 123 122 134 128 174 183 138 155 165 166 174 172 167 164 169 173 176 182 192 198 199 201 204 207 212 212 212 214 217 220 216 212 212 214 218 220
147 163 136 141 163 139 148 149 145 150 167 171 141 118 144 191 170 159 169 164 164 169 176 174 180 187 191 200 203 204 208 213 213 211 216 217 213 210 213 215 215 220 222
158 165 154 163 162 150 163 166 157 151 189 188 171 149 153 159 189 181 172 181 183 179 182 184 183 188 186 182 197 204 208 211 207 207 206 203 202 205 210 214 219 220 221
164 177 154 169 153 170 169 174 183 184 194 225 216 185 177 177 167 191 191 179 178 182 188 182 187 188 188 178 189 202 205 205 204 202 204 203 201 204 208 214 219 222 222
168 170 169 166 170 187 160 186 179 200 194 225 226 207 191 153 163 168 202 182 194 204 203 206 190 184 186 177 181 191 201 202 201 204 206 204 205 207 212 219 222 222 225
181 178 170 169 178 191 186 185 140 190 220 240 249 216 188 201 199 180 197 199 211 213 205 210 186 187 192 184 182 190 192 194 194 197 200 203 205 207 212 218 224 227 229
179 190 182 176 181 191 197 189 188 203 218 252 279 279 237 223 212 200 200 206 214 221 208 210 191 184 195 189 195 191 186 187 188 191 197 202 205 210 216 218 223 227 230
179 188 188 176 192 194 193 193 196 224 216 221 243 264 271 260 242 230 209 222 231 232 213 219 206 196 198 187 193 188 187 187 188 191 197 201 205 210 214 215 216 221 228
184 168 176 179 196 197 207 196 218 220 218 229 247 254 263 270 261 234 218 214 247 249 226 230 207 194 187 178 186 182 183 187 189 193 197 201 206 210 211 210 209 212 218
190 158 171 179 193 198 208 202 227 236 226 225 238 241 247 259 262 251 233 226 228 254 249 234 217 190 173 174 178 181 182 188 191 195 199 204 208 209 208 207 209 210 212
210 167 177 188 196 198 200 208 230 228 221 227 230 236 240 252 248 243 239 241 237 245 260 246 229 194 177 189 184 184 188 189 196 199 204 207 209 210 210 210 210 210 211
210 200 196 194 199 200 202 206 228 226 226 232 239 234 237 248 256 259 244 235 234 227 252 263 243 206 196 191 174 186 191 191 199 204 207 209 210 211 211 210 210 210 212
196 204 208 205 210 207 207 216 234 236 233 236 246 247 244 247 246 257 267 260 247 229 231 245 243 216 208 191 183 203 200 207 202 209 209 209 211 212 213 213 213 213 215
189 195 189 198 210 217 218 227 240 247 246 240 242 245 248 244 242 245 247 258 257 255 231 237 239 222 209 197 187 211 221 217 219 212 209 211 214 215 216 217 217 217 218
189 200 192 200 212 228 231 240 246 246 248 248 245 243 245 241 239 245 246 249 260 264 244 243 238 219 213 204 196 214 228 227 232 222 208 210 214 217 220 220 219 219 221
200 196 200 207 220 229 242 247 246 240 246 252 252 247 245 242 233 241 254 251 251 252 251 247 244 234 228 204 217 229 234 232 234 220 206 212 208 212 218 222 221 222 221
202 200 203 207 222 240 257 230 240 262 263 266 271 272 256 246 234 231 249 260 253 247 250 255 258 246 232 220 218 231 236 245 247 220 220 232 214 218 215 214 217 217 218
202 205 209 212 211 237 255 188 235 248 258 261 264 272 273 268 249 247 245 254 255 246 236 243 254 255 244 225 221 231 232 235 242 231 223 239 229 233 226 228 218 217 217
205 208 215 219 215 223 202 196 243 229 254 255 248 250 259 272 270 272 250 249 251 247 241 240 250 260 259 245 228 229 235 241 243 230 213 242 236 239 242 225 218 215 216
207 209 212 215 217 203 175 181 205 244 258 267 258 258 254 242 248 265 263 258 258 260 261 261 250 248 247 244 240 236 234 236 253 244 217 232 244 247 240 232 219 215 218
218 223 223 216 210 194 181 184 198 251 266 269 259 251 249 242 243 242 253 261 262 267 276 275 264 259 252 243 229 227 230 235 246 247 221 222 242 241 249 235 215 212 218
Height
1527 1529 1531 1532 1534 1536 1537 1539 1541 1543 1544 1546 1548 1549 1551 1553 1554 1556 1557 1559 1560 1562 1563 1565 1566 1567 1568 1569 1570 1571 1571 1572 1573 1574 1575 1576 1577 1578 1579 1580 1581 1582 1582
1529 1531 1532 1534 1536 1538 1539 1541 1543 1544 1545 1547 1549 1550 1552 1553 1555 1556 1558 1559 1561 1562 1564 1565 1566 1567 1567 1568 1569 1569 1570 1571 1572 1573 1574 1575 1576 1576 1577 1578 1579 1580 1581
1531 1533 1535 1536 1538 1540 1541 1543 1544 1545 1547 1548 1550 1552 1553 1555 1556 1557 1558 1560 1561 1562 1563 1564 1565 1566 1566 1567 1568 1568 1569 1570 1571 1572 1573 1573 1574 1575 1576 1576 1577 1578 1579
1533 1535 1536 1538 1539 1541 1542 1544 1545 1547 1548 1549 1551 1552 1554 1555 1557 1558 1559 1560 1560 1561 1562 1563 1564 1565 1566 1566 1567 1567 1568 1569 1570 1571 1571 1572 1573 1573 1574 1574 1575 1576 1577
1535 1536 1538 1539 1541 1542 1544 1545 1546 1548 1549 1550 1551 1553 1554 1555 1556 1557 1559 1559 1560 1561 1562 1563 1563 1564 1565 1565 1566 1566 1567 1568 1568 1569 1569 1570 1571 1571 1572 1573 1573 1574 1575
1535 1537 1538 1540 1542 1543 1545 1546 1547 1548 1549 1551 1552 1553 1554 1555 1556 1557 1558 1559 1560 1561 1561 1562 1562 1563 1564 1564 1565 1565 1566 1566 1567 1567 1568 1568 1569 1569 1570 1570 1571 1572 1572
1536 1538 1539 1541 1542 1543 1545 1546 1547 1549 1550 1551 1552 1553 1554 1555 1555 1556 1557 1558 1559 1560 1560 1561 1561 1562 1562 1563 1563 1564 1564 1564 1565 1565 1566 1566 1566 1567 1567 1568 1568 1569 1570
1537 1539 1539 1541 1542 1543 1545 1546 1547 1549 1550 1551 1552 1553 1554 1556 1555 1556 1557 1558 1558 1559 1559 1560 1560 1561 1561 1561 1562 1562 1562 1563 1563 1564 1564 1564 1564 1565 1565 1565 1566 1566 1567
1537 1539 1540 1541 1542 1543 1544 1546 1547 1548 1549 1551 1552 1553 1553 1553 1555 1556 1556 1557 1557 1557 1558 1558 1559 1559 1560 1560 1560 1561 1561 1561 1561 1561 1562 1562 1562 1563 1563 1563 1564 1564 1564
1538 1539 1540 1541 1542 1543 1544 1545 1546 1548 1549 1549 1551 1552 1552 1552 1553 1554 1556 1555 1556 1556 1557 1557 1558 1558 1558 1558 1558 1558 1558 1559 1559 1559 1560 1560 1560 1561 1561 1561 1561 1561 1561
1537 1538 1539 1540 1541 1542 1543 1545 1545 1547 1548 1549 1550 1550 1551 1552 1552 1553 1553 1554 1555 1555 1555 1555 1556 1555 1556 1555 1555 1555 1556 1556 1557 1557 1557 1558 1558 1558 1558 1559 1559 1559 1559
1536 1537 1538 1539 1540 1541 1542 1543 1544 1545 1546 1547 1548 1549 1549 1550 1550 1551 1551 1552 1552 1552 1552 1553 1553 1553 1552 1552 1552 1553 1553 1553 1554 1555 1555 1555 1556 1556 1556 1556 1556 1556 1556
1535 1536 1537 1538 1539 1540 1541 1542 1543 1544 1544 1545 1545 1546 1547 1548 1548 1549 1549 1549 1550 1550 1550 1550 1550 1550 1550 1549 1549 1550 1550 1551 1551 1552 1552 1553 1553 1553 1553 1553 1553 1553 1553
1534 1535 1536 1536 1537 1538 1539 1540 1541 1542 1542 1543 1544 1544 1545 1546 1547 1547 1547 1548 1548 1548 1547 1547 1548 1547 1547 1547 1546 1547 1547 1547 1548 1549 1550 1550 1550 1550 1550 1550 1550 1551 1551
1533 1534 1534 1535 1535 1536 1538 1539 1539 1540 1541 1541 1542 1542 1543 1543 1544 1545 1545 1545 1546 1545 1545 1545 1545 1545 1544 1544 1543 1543 1544 1544 1545 1546 1546 1547 1547 1547 1547 1547 1547 1547 1548
1532 1532 1533 1533 1534 1535 1536 1536 1537 1538 1538 1539 1540 1540 1541 1541 1541 1542 1542 1543 1543 1543 1542 1541 1542 1542 1542 1541 1541 1541 1541 1541 1542 1543 1543 1543 1544 1543 1543 1544 1544 1544 1544
1530 1531 1531 1532 1533 1533 1534 1534 1535 1535 1536 1536 1537 1538 1538 1538 1539 1539 1539 1539 1539 1540 1539 1538 1539 1539 1539 1539 1538 1538 1538 1538 1539 1539 1540 1540 1540 1540 1540 1540 1540 1541 1541
1527 1528 1529 1530 1530 1531 1531 1532 1532 1533 1533 1534 1534 1535 1535 1535 1535 1536 1536 1536 1536 1536 1536 1535 1535 1536 1536 1535 1535 1535 1535 1535 1535 1536 1536 1536 1536 1537 1537 1537 1537 1537 1537
1524 1526 1527 1527 1528 1528 1529 1529 1530 1530 1531 1531 1531 1531 1532 1532 1532 1532 1532 1533 1533 1533 1533 1533 1532 1532 1532 1532 1532 1532 1532 1532 1532 1532 1532 1532 1533 1533 1533 1533 1533 1533 1534
1522 1523 1524 1524 1525 1526 1526 1526 1527 1527 1527 1528 1528 1528 1529 1529 1528 1528 1529 1529 1529 1529 1530 1529 1529 1528 1528 1528 1528 1528 1528 1529 1529 1529 1528 1529 1529 1529 1529 1529 1529 1529 1529
1520 1520 1521 1521 1522 1523 1523 1524 1524 1524 1524 1524 1525 1525 1525 1525 1525 1525 1526 1525 1526 1526 1526 1526 1525 1525 1525 1524 1524 1525 1525 1525 1525 1525 1525 1525 1525 1525 1525 1525 1525 1525 1525
1517 1517 1518 1518 1519 1520 1521 1521 1521 1522 1522 1522 1521 1522 1522 1522 1522 1522 1522 1522 1522 1522 1521 1522 1522 1521 1521 1520 1521 1521 1521 1521 1521 1522 1521 1520 1521 1520 1520 1520 1521 1521 1521
1513 1514 1515 1515 1516 1516 1517 1518 1518 1518 1518 1518 1518 1518 1519 1519 1518 1518 1518 1517 1517 1517 1518 1518 1517 1517 1517 1516 1517 1516 1516 1516 1516 1517 1517 1515 1516 1515 1516 1516 1516 1516 1517
1510 1510 1511 1512 1512 1513 1514 1514 1514 1515 1514 1515 1515 1515 1515 1514 1514 1514 1513 1513 1513 1513 1513 1513 1513 1512 1512 1512 1513 1513 1512 1512 1512 1512 1512 1511 1511 1510 1510 1510 1511 1511 1511
1506 1507 1508 1509 1509 1510 1510 1511 1511 1511 1510 1511 1511 1511 1511 1510 1510 1510 1509 1508 1508 1508 1508 1508 1508 1508 1507 1507 1508 1508 1507 1507 1506 1506 1507 1507 1506 1505 1505 1505 1505 1505 1506
1504 1505 1505 1506 1506 1506 1507 1507 1507 1507 1506 1506 1507 1507 1507 1506 1506 1505 1505 1504 1504 1503 1503 1503 1503 1502 1502 1502 1502 1502 1502 1502 1501 1500 1501 1501 1501 1501 1500 1499 1499 1499 1500